BM1CKC-10 Weather Reports


time (UTC)temp
C
wind
direction
speed
KPH
gust
KPH
rain 1hr
cm
rain 24hr
cm
rain mn
cm
humidity
%
barometer
mb
20260505124958 27 0.0 0.0 0.00 0.00 0.00 59 1008.4
20260505122958 26 0.0 0.0 0.00 0.00 0.00 59 1008.1
20260505120958 26 0.0 0.0 0.00 0.00 0.00 60 1008.3
20260505114958 26 0.0 0.0 0.00 0.00 0.00 59 1008.0
20260505112958 25 0.0 0.0 0.00 0.00 0.00 66 1007.1
20260505110958 26 0.0 0.0 0.00 0.00 0.00 61 1007.4
20260505100958 25 0.0 0.0 0.00 0.00 0.00 60 1008.0
20260505094958 26 0.0 0.0 0.00 0.00 0.00 61 1007.6
20260505092959 25 0.0 0.0 0.00 0.00 0.00 61 1007.5
20260505090958 24 0.0 0.0 0.00 0.00 0.00 59 1007.3
20260505084958 23 0.0 0.0 0.00 0.00 0.00 57 1007.0
20260505082958 23 0.0 0.0 0.00 0.00 0.00 61 1007.1
20260505080958 23 0.0 0.0 0.00 0.00 0.00 59 1007.4
20260505074959 23 0.0 0.0 0.00 0.00 0.00 57 1007.4
20260505072958 24 0.0 0.0 0.00 0.00 0.00 54 1007.5
20260505070958 26 0.0 0.0 0.00 0.00 0.00 62 1007.7
20260505064959 26 0.0 0.0 0.00 0.00 0.00 61 1007.8
20260505062959 26 0.0 0.0 0.00 0.00 0.00 62 1007.7
20260505061009 27 0.0 0.0 0.00 0.00 0.00 61 1008.0
20260505054958 27 0.0 0.0 0.00 0.00 0.00 61 1008.1
20260505052958 26 0.0 0.0 0.00 0.00 0.00 61 1008.2
20260505050958 26 0.0 0.0 0.00 0.00 0.00 60 1008.7
20260505040958 26 0.0 0.0 0.00 0.00 0.00 60 1009.0
20260505034957 27 0.0 0.0 0.00 0.00 0.00 60 1009.3
20260505032958 27 0.0 0.0 0.00 0.00 0.00 59 1009.3
20260505030958 27 0.0 0.0 0.00 0.00 0.00 59 1009.8
20260505024958 27 0.0 0.0 0.00 0.00 0.00 59 1010.0
20260505022958 27 0.0 0.0 0.00 0.00 0.00 59 1009.7
20260505020959 27 0.0 0.0 0.00 0.00 0.00 58 1010.1
20260505014957 27 0.0 0.0 0.00 0.00 0.00 56 1010.0
20260505012958 27 0.0 0.0 0.00 0.00 0.00 57 1009.8
20260505010959 27 0.0 0.0 0.00 0.00 0.00 56 1010.0
20260505004958 27 0.0 0.0 0.00 0.00 0.00 55 1009.6
20260505002958 25 0.0 0.0 0.00 0.00 0.00 60 1009.7
20260505000958 25 0.0 0.0 0.00 0.00 0.00 61 1009.4
20260504234958 25 0.0 0.0 0.00 0.00 0.00 62 1009.4
20260504232959 25 0.0 0.0 0.00 0.00 0.00 61 1009.5
20260504230959 25 0.0 0.0 0.00 0.00 0.00 62 1009.4
20260504224958 25 0.0 0.0 0.00 0.00 0.00 60 1009.2
20260504222958 25 0.0 0.0 0.00 0.00 0.00 64 1008.9
20260504220958 25 0.0 0.0 0.00 0.00 0.00 61 1009.1
20260504214958 25 0.0 0.0 0.00 0.00 0.00 61 1008.6
20260504212959 25 0.0 0.0 0.00 0.00 0.00 63 1008.2
20260504210958 25 0.0 0.0 0.00 0.00 0.00 60 1008.1
20260504204959 25 0.0 0.0 0.00 0.00 0.00 64 1008.3
20260504202958 25 0.0 0.0 0.00 0.00 0.00 64 1008.4
20260504200958 25 0.0 0.0 0.00 0.00 0.00 61 1008.4
20260504194958 24 0.0 0.0 0.00 0.00 0.00 63 1008.2
20260504192958 25 0.0 0.0 0.00 0.00 0.00 63 1008.4
20260504191006 25 0.0 0.0 0.00 0.00 0.00 61 1008.4
20260504184958 25 0.0 0.0 0.00 0.00 0.00 60 1008.6
20260504182958 25 0.0 0.0 0.00 0.00 0.00 62 1008.7
20260504180958 25 0.0 0.0 0.00 0.00 0.00 61 1009.0
20260504174959 25 0.0 0.0 0.00 0.00 0.00 58 1009.4
20260504172958 25 0.0 0.0 0.00 0.00 0.00 60 1009.7
20260504170958 25 0.0 0.0 0.00 0.00 0.00 58 1010.2
20260504150958 25 0.0 0.0 0.00 0.00 0.00 55 1011.7
20260504140958 27 0.0 0.0 0.00 0.00 0.00 52 1012.5